Weather History for KW29 - November, 2011

Change the Weather History Date:

Sunday, November 6, 2011

  Actual Average (KESN) Record (KESN)
Temperature  
Mean Temperature 46 °F -  
Max Temperature 59 °F 59 °F 78 °F (1948)
Min Temperature 32 °F 39 °F 22 °F (1967)
Degree Days  
Heating Degree Days 20    
Moisture  
Dew Point 38 °F    
Average Humidity 80    
Maximum Humidity 100    
Minimum Humidity 48    
Precipitation  
Precipitation 0.00 in - - ()
Sea Level Pressure  
Sea Level Pressure 30.50 in    
Wind  
Wind Speed 1 mph (SSE)    
Max Wind Speed 8 mph    
Max Gust Speed -    
Visibility 10 miles    
Events      
Averages and records for this station are not official NWS values.
T = Trace of Precipitation, MM = Missing Value Source: NWS Daily Summary

Daily Weather History Graph

Daily Weather History Graph

Search for Another Location

Airport or City:

Trip Planner

Search our weather history database for the weather conditions in past years. The results will help you decide how hot, cold, wet, or windy it might be!

Date:

Astronomy

Nov. 06, 2011 Rise Set
Actual Time 6:37 AM EST 4:59 PM EST
Civil Twilight 6:09 AM EST 5:27 PM EST
Nautical Twilight 5:38 AM EST 5:59 PM EST
Astronomical Twilight 5:06 AM EST 6:30 PM EST
Moon 2:41 PM EST (11/6) 2:43 AM EST (11/6)
Length of Visible Light 11h 17m
Length of Day
10h 21m
Waxing Gibbous, 85% of the Moon is Illuminated
Nov 6
Waxing Gibbous
Nov 10
Full
Nov 18
Last Quarter
Nov 25
New
Dec 2
First Quarter

Hourly Weather History & Observations

Time (EST) Temp. Windchill Dew Point Humidity Pressure Visibility Wind Dir Wind Speed Gust Speed Precip Events Conditions
12:02 AM 35.6 °F - 33.8 °F 93% 30.50 in 10.0 mi Calm Calm - N/A   Clear
12:21 AM 35.6 °F - 33.8 °F 93% 30.49 in 10.0 mi Calm Calm - N/A   Clear
12:40 AM 33.8 °F - 33.8 °F 100% 30.50 in 10.0 mi Calm Calm - N/A   Clear
1:00 AM 35.6 °F - 35.6 °F 100% 30.50 in 10.0 mi Calm Calm - N/A   Clear
1:19 AM 35.6 °F - 35.6 °F 100% 30.50 in 10.0 mi Calm Calm - N/A   Clear
1:38 AM 33.8 °F - 33.8 °F 100% 30.49 in 10.0 mi Calm Calm - N/A   Clear
1:58 AM 33.8 °F - 33.8 °F 100% 30.50 in 10.0 mi Calm Calm - N/A   Clear
1:17 AM 33.8 °F - 33.8 °F 100% 30.50 in 10.0 mi Calm Calm - N/A   Clear
1:56 AM 33.8 °F - 33.8 °F 100% 30.50 in 10.0 mi Calm Calm - N/A   Clear
2:15 AM 33.8 °F - 33.8 °F 100% 30.50 in 10.0 mi Calm Calm - N/A   Clear
2:34 AM 33.8 °F - 33.8 °F 100% 30.49 in 10.0 mi Calm Calm - N/A   Clear
3:13 AM 33.8 °F - 33.8 °F 100% 30.49 in 10.0 mi Calm Calm - N/A   Clear
3:32 AM 32.0 °F - 32.0 °F 100% 30.49 in 10.0 mi Calm Calm - N/A   Clear
3:52 AM 33.8 °F - 33.8 °F 100% 30.49 in 10.0 mi Calm Calm - N/A   Clear
4:11 AM 33.8 °F - 33.8 °F 100% 30.50 in 10.0 mi Calm Calm - N/A   Scattered Clouds
4:30 AM 35.6 °F 32.8 °F 35.6 °F 100% 30.51 in 10.0 mi North 3.5 mph - N/A   Mostly Cloudy
4:50 AM 35.6 °F - 35.6 °F 100% 30.51 in 10.0 mi Calm Calm - N/A   Overcast
5:09 AM 37.4 °F 33.8 °F 37.4 °F 100% 30.51 in 10.0 mi North 4.6 mph - N/A   Overcast
5:28 AM 42.8 °F 41.1 °F 42.8 °F 100% 30.51 in 10.0 mi NNW 3.5 mph - N/A   Overcast
5:48 AM 44.6 °F 43.1 °F 44.6 °F 100% 30.51 in 10.0 mi NNW 3.5 mph - N/A   Overcast
6:07 AM 44.6 °F - 44.6 °F 100% 30.51 in 10.0 mi Calm Calm - N/A   Overcast
6:26 AM 42.8 °F 40.1 °F 42.8 °F 100% 30.51 in 10.0 mi NNE 4.6 mph - N/A   Mostly Cloudy
6:46 AM 41.0 °F 39.0 °F 41.0 °F 100% 30.52 in 10.0 mi NNE 3.5 mph - N/A   Scattered Clouds
7:24 AM 42.8 °F - 42.8 °F 100% 30.54 in 10.0 mi Calm Calm - N/A   Overcast
7:43 AM 44.6 °F - 42.8 °F 93% 30.54 in 10.0 mi Calm Calm - N/A   Overcast
7:44 AM 44.6 °F - 42.8 °F 93% 30.54 in 10.0 mi Calm Calm - N/A   Overcast
8:03 AM 44.6 °F - 42.8 °F 93% 30.54 in 10.0 mi Calm Calm - N/A   Overcast
8:22 AM 46.4 °F 45.2 °F 42.8 °F 87% 30.55 in 10.0 mi East 3.5 mph - N/A   Overcast
8:41 AM 46.4 °F - 42.8 °F 87% 30.55 in 10.0 mi Calm Calm - N/A   Overcast
9:01 AM 46.4 °F - 41.0 °F 81% 30.56 in 10.0 mi Calm Calm - N/A   Overcast
9:20 AM 48.2 °F - 39.2 °F 71% 30.55 in 10.0 mi NE 3.5 mph - N/A   Overcast
9:39 AM 50.0 °F - 41.0 °F 71% 30.55 in 10.0 mi Calm Calm - N/A   Overcast
9:59 AM 50.0 °F - 41.0 °F 71% 30.55 in 10.0 mi Calm Calm - N/A   Overcast
10:18 AM 51.8 °F - 39.2 °F 62% 30.55 in 10.0 mi Calm Calm - N/A   Overcast
10:37 AM 51.8 °F - 41.0 °F 67% 30.55 in 10.0 mi Calm Calm - N/A   Overcast
10:56 AM 51.8 °F - 39.2 °F 62% 30.54 in 10.0 mi Calm Calm - N/A   Overcast
11:16 AM 51.8 °F - 41.0 °F 67% 30.53 in 10.0 mi Calm Calm - N/A   Overcast
11:35 AM 53.6 °F - 39.2 °F 58% 30.52 in 10.0 mi South 3.5 mph - N/A   Overcast
11:54 AM 53.6 °F - 37.4 °F 54% 30.51 in 10.0 mi South 4.6 mph - N/A   Mostly Cloudy
12:14 PM 55.4 °F - 37.4 °F 51% 30.50 in 10.0 mi SSE 5.8 mph - N/A   Scattered Clouds
12:33 PM 55.4 °F - 37.4 °F 51% 30.49 in 10.0 mi SSE 5.8 mph - N/A   Clear
12:52 PM 55.4 °F - 37.4 °F 51% 30.48 in 10.0 mi SSE 5.8 mph - N/A   Clear
1:11 PM 57.2 °F - 37.4 °F 48% 30.47 in 10.0 mi SSE 5.8 mph - N/A   Clear
1:31 PM 57.2 °F - 37.4 °F 48% 30.46 in 10.0 mi SSE 5.8 mph - N/A   Clear
1:50 PM 57.2 °F - 39.2 °F 51% 30.46 in 10.0 mi South 8.1 mph - N/A   Clear
2:09 PM 57.2 °F - 39.2 °F 51% 30.45 in 10.0 mi SSE 4.6 mph - N/A   Clear
2:29 PM 59.0 °F - 39.2 °F 48% 30.44 in 10.0 mi South 4.6 mph - N/A   Clear
2:48 PM 57.2 °F - 39.2 °F 51% 30.44 in 10.0 mi South 6.9 mph - N/A   Clear
3:07 PM 57.2 °F - 39.2 °F 51% 30.44 in 10.0 mi SSW 4.6 mph - N/A   Clear
3:26 PM 57.2 °F - 41.0 °F 55% 30.43 in 10.0 mi South 5.8 mph - N/A   Clear
3:46 PM 55.4 °F - 41.0 °F 58% 30.43 in 10.0 mi South 4.6 mph - N/A   Clear
4:05 PM 55.4 °F - 41.0 °F 58% 30.43 in 10.0 mi South 4.6 mph - N/A   Clear
4:24 PM 55.4 °F - 41.0 °F 58% 30.42 in 10.0 mi South 3.5 mph - N/A   Clear
4:44 PM 53.6 °F - 41.0 °F 62% 30.41 in 10.0 mi South 3.5 mph - N/A   Clear
5:03 PM 51.8 °F - 41.0 °F 67% 30.41 in 10.0 mi South 3.5 mph - N/A   Clear
5:22 PM 50.0 °F - 41.0 °F 71% 30.42 in 10.0 mi South 3.5 mph - N/A   Clear
5:42 PM 48.2 °F - 41.0 °F 76% 30.41 in 10.0 mi Calm Calm - N/A   Clear
6:01 PM 46.4 °F - 41.0 °F 81% 30.42 in 10.0 mi Calm Calm - N/A   Clear
6:20 PM 44.6 °F - 41.0 °F 87% 30.42 in 10.0 mi Calm Calm - N/A   Clear
6:39 PM 44.6 °F - 42.8 °F 93% 30.42 in 10.0 mi Calm Calm - N/A   Clear
6:59 PM 44.6 °F - 44.6 °F 100% 30.42 in 10.0 mi Calm Calm - N/A   Clear
7:18 PM 44.6 °F 43.1 °F 44.6 °F 100% 30.42 in 10.0 mi SSE 3.5 mph - N/A   Clear
7:37 PM 44.6 °F 43.1 °F 44.6 °F 100% 30.41 in 10.0 mi SSE 3.5 mph - N/A   Clear
7:57 PM 42.8 °F - 42.8 °F 100% 30.42 in 10.0 mi Calm Calm - N/A   Clear
8:16 PM 44.6 °F - 44.6 °F 100% 30.42 in 10.0 mi Calm Calm - N/A   Clear
8:35 PM 42.8 °F 41.1 °F 42.8 °F 100% 30.42 in 10.0 mi SSE 3.5 mph - N/A   Clear
10:12 PM 44.6 °F 43.1 °F 44.6 °F 100% 30.42 in 10.0 mi SSE 3.5 mph - N/A   Clear
10:31 PM 46.4 °F 44.3 °F 46.4 °F 100% 30.41 in 10.0 mi SSE 4.6 mph - N/A   Clear
10:50 PM 46.4 °F 45.2 °F 46.4 °F 100% 30.41 in 10.0 mi South 3.5 mph - N/A   Clear